Regional Weather Roundup
Issued by NWS

Home | Current Version | Previous Version | Graphics & Text | Print | Product List | Glossary On
Versions: 1 2 3 4 5 6 7 8 9 10 11 12 13 14 15 16 17 18 19 20 21 22 23 24 25 26 27 28 29 30 31 32 33 34 35 36 37 38 39 40 41 42 43 44 45 46 47 48 49 50
000
ASUS43 KMPX 010301
RWRMN
WEATHER ROUNDUP FOR MINNESOTA
NATIONAL WEATHER SERVICE TWIN CITIES/CHANHASSEN MN
900 PM CST SAT JAN 31 2015


NOTE: "FAIR" INDICATES FEW OR NO CLOUDS BELOW 12,000 FEET WITH NO
SIGNIFICANT WEATHER AND/OR OBSTRUCTIONS TO VISIBILITY. N/A MEANS
CURRENT SKY AND/OR WEATHER CONDITIONS ARE NOT AVAILABLE.

MNZ060>063-068>070-010400-
   Twin Cities Metro

CITY           SKY/WX    TMP DP  RH WIND       PRES   REMARKS
TWIN CITIES    CLOUDY    25  12  58 NE17      30.19S WCI  12
ST PAUL        CLOUDY    26  13  57 E12       30.21F WCI  16
CRYSTAL        CLOUDY    25   9  50 NE12      30.19S WCI  14
BLAINE         CLOUDY    25  10  54 NE16G22   30.19F WCI  12
LAKEVILLE      CLOUDY    23  16  74 NE10      30.17S WCI  12
EDEN PRAIRIE   CLOUDY    26  12  55 NE14      30.16F WCI  14
SOUTH ST PAUL  CLOUDY    26  14  60 NE10      30.19F WCI  16
LAKE ELMO      MOCLDY    27  16  63 NE14      30.20S WCI  15
$$
MNZ001>005-007-008-013>017-022>024-027-028-010400-
   Northwest Minnesota

CITY           SKY/WX    TMP DP  RH WIND       PRES   REMARKS
BEMIDJI        MOCLDY    -3  -9  73 N7        30.36S WCI -16
HALLOCK        PTCLDY    -9 -18  64 N14       30.54R WCI -31
ROSEAU         PTCLDY    -8 -15  71 N6        30.49R WCI -21
WARROAD        FAIR      -8 -17  65 N9        30.47S WCI -25
THIEF RVR FALL PTCLDY    -2 -11  65 N13       30.44R WCI -21
CROOKSTON      PTCLDY    -4 -11  71 N15G22    30.48S WCI -25
FOSSTON        PTCLDY    -4 -11  71 N10G16    30.39R WCI -21
DETROIT LAKES  MOCLDY     9  -2  61 NE9       30.31S WCI  -5
MOORHEAD       MOCLDY     5  -6  61 N21G26    30.38S WCI -16
PARK RAPIDS    PTCLDY     5  -5  63 N13G24    30.28F WCI -12
MAHNOMEN       FAIR       3  -6  65 NE15      30.35S WCI -16
$$
MNZ006-009>011-018-025>026-010400-
   North Central Minnesota

CITY           SKY/WX    TMP DP  RH WIND       PRES   REMARKS
BAUDETTE       PTCLDY    -9 -16  71 N7        30.44S WCI -24
FLAG ISLAND    PTCLDY    -9 -17  70 N8        30.48S WCI -26
INTL FALLS     MOCLDY    -8 -17  64 N7        30.42R WCI -23
WASKISH        PTCLDY    -8 -11  84 N8        30.41S WCI -23
BIG FORK       PTCLDY     0 -11  60 N5        30.37R WCI -10
LONGVILLE      MOCLDY     7  -6  56 N5        30.32R WCI  -2
GRAND RAPIDS   PTCLDY     3  -8  60 N8        30.31R WCI -10
CRANE LAKE     PTCLDY   -11 -17  77 CALM      30.43S
ORR            PTCLDY    -6 -15  65 CALM      30.34S
COOK           PTCLDY    -4 -11  71 N3        30.36R
WALKER         FAIR       3  -5  69 N7        30.33R WCI  -9
$$
MNZ012-019>021-037-010400-
   Northeast Minnesota

CITY           SKY/WX    TMP DP  RH WIND       PRES   REMARKS
DULUTH         FAIR       7  -6  55 N14       30.28R WCI -10
ELY            MOCLDY    -6 -11  77 CALM      30.34S
HIBBING        PTCLDY     2 -10  57 N6        30.32S WCI  -9
EVELETH        PTCLDY     3  -8  60 NE8       30.33F WCI -10
DULUTH HARBOR  FAIR      14   3  62 NE21G29   30.36R WCI  -4
TWO HARBORS    PTCLDY     9  -6  52 NE7       30.31S WCI  -3
SILVER BAY     MOCLDY     5  -8  56 N6        30.32S WCI  -6
GRAND MARAIS     N/A      2 -12  52 N12G24    30.39F WCI -15
G MARAIS ARPRT PTCLDY    -8 -17  65 N9        30.28F WCI -25
$$
MNZ029>031-032-039>041-046>048-054>057-064-010400-
   West Central Minnesota

CITY           SKY/WX    TMP DP  RH WIND       PRES   REMARKS
FERGUS FALLS   FAIR      10  -4  52 NE13G18   30.32R WCI  -5
WHEATON        CLOUDY    10   1  67 N21       30.29R WCI  -9
MORRIS         MOCLDY    19   5  53 NE16      30.21S WCI   5
ALEXANDRIA     CLOUDY    14   2  58 NE14      30.22S WCI  -1
ELBOW LAKE     CLOUDY    14   1  55 NE15      30.25R WCI  -2
WADENA         MOCLDY     9  -2  61 NE16G22   30.27R WCI  -9
GLENWOOD       CLOUDY    16   7  67 NE15G25   30.21R WCI   1
APPLETON       CLOUDY    23   7  50 NE18G26   30.20S WCI   9
BENSON         CLOUDY    21   5  49 E13       30.20S WCI   9
ORTONVILLE     CLOUDY    16   7  67 N18       30.21S WCI  -1
MADISON        CLOUDY    27  10  50 NE16      30.19S WCI  14
WILLMAR        FAIR      25   9  50 NE14G20   30.19S WCI  13
$$
MNZ033>034-036-042>043-049>051-058-059-010400-
   Central Minnesota

CITY           SKY/WX    TMP DP  RH WIND       PRES   REMARKS
ST CLOUD       CLOUDY    21   2  43 NE16      30.22R WCI   7
SAUK CENTRE    CLOUDY    17   5  59 N13G18    30.22R WCI   3
PAYNESVILLE    CLOUDY    19   5  54 N13G20    30.19S WCI   6
AITKIN         MOCLDY    12  -2  52 N8        30.27S WCI   1
PINE RIVER     MOCLDY     9  -2  61 N12       30.31S WCI  -6
BRAINERD       CLOUDY    12  -1  56 NE14      30.27R WCI  -3
STAPLES        MOCLDY    10   0  61 NE8       30.26F WCI  -1
LONG PRAIRIE   CLOUDY    14   3  62 N14       30.23S WCI  -1
LITTLE FALLS   CLOUDY    18   1  49 NE7       30.25S WCI   8
LITCHFIELD     CLOUDY    25  10  54 NE10      30.18S WCI  15
BUFFALO        CLOUDY    24   8  49 NE12G20   30.20S WCI  13
MAPLE LAKE     CLOUDY    25  10  53 NE10G20   30.20S WCI  15
$$
MNZ037-044-045-052-053-010400-
   East Central Minnesota

CITY           SKY/WX    TMP DP  RH WIND       PRES   REMARKS
PRINCETON      CLOUDY    21   5  49 NE13G21   30.22S WCI   9
MORA           CLOUDY    18   1  49 NE9       30.27R WCI   6
CAMBRIDGE      CLOUDY    21   9  58 NE10G23   30.22S WCI  10
RUSH CITY      CLOUDY    19   6  55 NE12G18   30.25S WCI   7
MOOSE LAKE     CLOUDY    12  -2  52 NE9G16    30.28S WCI   0
HINCKLEY       FAIR      19   3  49 NE14      30.26S WCI   6
CLOQUET        MOCLDY     9  -6  52 N10       30.29R WCI  -6
MCGREGOR       CLOUDY    10   0  61 NE9       30.30S WCI  -2
$$
MNZ071>073-080-081-089-090-097-098-010400-
   Southwest Minnesota

CITY           SKY/WX    TMP DP  RH WIND       PRES   REMARKS
MONTEVIDEO     CLOUDY    23  12  63 E13G18    30.19S WCI  11
GRANITE FALLS  CLOUDY    24  14  65 NE14G20   30.18S WCI  12
CANBY          CLOUDY    24  15  69 NE10      30.17S WCI  13
MARSHALL       CLOUDY    25  18  74 NE13      30.15S WCI  13
REDWOOD FALLS  CLOUDY    25  20  81 NE6       30.15S WCI  18
OLIVIA         CLOUDY    23  16  74 NE12      30.16S WCI  12
PIPESTONE      LGT SNOW  23  21  93 E10G16    30.05S WCI  12
WINDOM         LGT SNOW  25  21  86 NE14G20   30.07F WCI  13
WORTHINGTON    CLOUDY    27  21  80 NE20      30.05F WCI  13
JACKSON        LGT SNOW  27  23  86 NE17G25   30.06S WCI  14
TRACY          CLOUDY    26  21  84 NE13G18   30.11F WCI  14
SLAYTON        LGT SNOW  23  22  98 NE10      30.07F WCI  12
$$
MNZ065>067-074>077-082>085-091>093-010400-
   South Central Minnesota

CITY           SKY/WX    TMP DP  RH WIND       PRES   REMARKS
MANKATO        CLOUDY    27  18  69 NE13G22   30.12F WCI  16
NEW ULM        CLOUDY    25  18  74 E7        30.14S WCI  17
ST JAMES       LGT SNOW  27  23  86 NE15      30.12S WCI  15
FAIRMONT       CLOUDY    25  21  86 NE18      30.07S WCI  11
GLENCOE        CLOUDY    27  18  69 NE7       30.15S WCI  19
FARIBAULT      CLOUDY    27  19  74 NE8       30.14F WCI  18
OWATONNA       CLOUDY    27  19  74 NE13      30.11F WCI  16
WASECA         CLOUDY    27  21  80 NE17      30.12F WCI  14
ALBERT LEA     LGT SNOW  27  25  93 NE15      30.08F WCI  15
$$
MNZ078>079-086>088-094>096-010400-
   Southeast Minnesota

CITY           SKY/WX    TMP DP  RH WIND       PRES   REMARKS
ROCHESTER      LGT SNOW  24  21  88 NE16      30.11F VSB 1   WCI  11
RED WING       CLOUDY    27  16  63 E8        30.18S WCI  18
STANTON        CLOUDY    27  18  70 NE13      30.15S WCI  16
DODGE CENTER   CLOUDY    27  21  80 E16       30.10F WCI  14
WINONA         CLOUDY    30  21  69 E5        30.17F WCI  25
AUSTIN         MIX PCPN  25  23  93 NE13      30.09S WCI  13
PRESTON        LGT SNOW  25  23  93 NE9       30.11F WCI  15
$$
ABBREVIATIONS USED IN REMARKS
   TC - TEMPERATURES IN CELSIUS
  WCI - WIND CHILL INDEX
   HX - HEAT INDEX
  VSB - VISIBILITY
$$


USA.gov is the U.S. government's official web portal to all federal, state and local government web resources and services.